Regional Weather Roundup
Issued by NWS

Home | Current Version | Previous Version | Text Only | Print | Product List | Glossary On
Versions: 1 2 3 4 5 6 7 8 9 10 11 12 13 14 15 16 17 18 19 20 21 22 23 24 25 26 27 28 29 30 31 32 33 34 35 36 37 38 39 40 41 42 43 44 45 46 47 48 49 50
000
ASUS45 KBOU 270607
RWRCO

WEATHER ROUNDUP FOR COLORADO
NATIONAL WEATHER SERVICE DENVER/BOULDER CO
1200 AM MDT FRI MAY 27 2016

NOTE: "FAIR" INDICATES FEW OR NO CLOUDS BELOW 12000 FEET WITH NO
SIGNIFICANT WEATHER AND/OR OBSTRUCTIONS TO VISIBILITY.

COZ001>005-013-030-031-270700-
...NORTHWEST COLORADO...

CITY           SKY/WX    TMP DP  RH WIND       PRES   REMARKS
CRAIG          CLOUDY    49  38  65 W7        29.96S
HAYDEN         FAIR      45  36  70 E9        29.97S
MEEKER         NOT AVBL
MOUNT WERNER   NOT AVBL
STEAMBOAT SPGS MOCLDY    44  35  72 CALM      29.98S
WALDEN         FAIR      36  32  87 NW6       30.02S
$$

COZ006>008-011-270700-
...WEST CENTRAL VALLEYS...

CITY           SKY/WX    TMP DP  RH WIND       PRES   REMARKS
GRAND JUNCTION FAIR      53  36  52 W3        29.91S
MONTROSE       FAIR      48  39  71 SE17      29.98F
EAGLE          CLOUDY    43  41  93 SE3       30.01F
RIFLE          MOCLDY    51  36  56 VRB3      29.94S
DELTA          FAIR      54  38  55 E6        29.95R
NUCLA          FAIR      50  34  53 SE3       30.01S
$$

COZ017>023-064>068-270700-
...SOUTHWEST COLORADO...

CITY           SKY/WX    TMP DP  RH WIND       PRES   REMARKS
DURANGO        FAIR      48  29  47 SW5       29.95S
CORTEZ         FAIR      44  35  70 SW3       29.98S
PAGOSA SPRINGS CLOUDY    43  32  65 CALM      29.99S
TELLURIDE      SNOW      34  34 100 CALM      30.09F VSB 1/2
WOLF CREEK PAS CLOUDY    25  25 100 W8        30.13S WCI  16
$$

COZ009-010-012-014-032>034-037-058>063-270700-
...CENTRAL COLORADO...

CITY           SKY/WX    TMP DP  RH WIND       PRES   REMARKS
ASPEN          LGT RAIN  40  37  89 CALM      30.01F
BUENA VISTA    CLOUDY    39  37  93 SE6       29.99S
COPPER MTN     NOT AVBL
BERTHOUD PASS  HAZE      25  14  63 N17       30.11S VSB<1/4 WCI  11
COTTONWOOD PAS CLOUDY    37  32  81 CALM      30.03S
GUNNISON       CLOUDY    43  34  70 SW13      30.03R
KREMMLING      CLOUDY    43  32  65 W8        29.99F
LEADVILLE      CLOUDY    32  30  92 N9        30.03F WCI  24
MONARCH PASS   FOG       28  27  93 CALM      30.19F VSB<1/4
SALIDA         CLOUDY    42  39  90 CALM      30.06F
SUNLIGHT       CLOUDY    34  32  93 N5        30.12F WCI  30
WILKERSON PASS LGT SNOW  30  28  93 N8        30.08F WCI  23
$$

COZ069>075-270700-
...SAN LUIS VALLEY/SANGRE DE CRISTO MOUNTAINS...

CITY           SKY/WX    TMP DP  RH WIND       PRES   REMARKS
ALAMOSA        CLOUDY    45  32  60 N9        29.98S
LA VETA PASS   FAIR      32  30  93 S5        30.03S WCI  27
SAGUACHE       CLOUDY    37  36  93 NW9       30.00S
$$

COZ035-036-038>040-270700-
...NORTHERN COLORADO FRONT RANGE...

CITY           SKY/WX    TMP DP  RH WIND       PRES   REMARKS
DENVER INTL AP CLOUDY    45  42  89 SW7       29.90S
DMNS CITY PARK   N/A     48  46  93 E10       29.89F
AURORA         CLOUDY    45  45 100 SW7       29.90F
FRONT RANGE AP NOT AVBL
ERIE MUNI ARPT CLOUDY    48  45  87 CALM      29.89F
BOULDER MUN AP FAIR      46  45  93 CALM      29.89S
CENTENNIAL     CLOUDY    46  42  86 CALM      29.91S
BROOMFIELD     CLOUDY    46  45  93 CALM      29.91S
FORT COLLINS   FAIR      46  43  87 S6        29.90S
LONGMONT       FAIR      50  46  87 CALM      29.90F
$$

COZ041-046-047-076>085-087-088-270700-
...PIKES PEAK/PALMER DIVIDE AND SOUTHERN FOOTHILLS...

CITY           SKY/WX    TMP DP  RH WIND       PRES   REMARKS
COLO. SPRINGS  CLOUDY    46  40  79 N8        29.91F
A. F. ACADEMY  MOCLDY    43  43 100 NW5       29.90F
SCHRIEVER AFB  NOT AVBL
ELLICOTT       CLOUDY   N/A N/A N/A N12       29.89F
FALCON         CLOUDY    40  38  91 NW5       29.93F
FORT CARSON    FAIR      46  41  82 NE3       29.89F
LIMON          CLOUDY    45  42  89 NW10      29.86F
MONUMENT HILL  DRIZZLE   37  37 100 NW5       29.94F
TRINIDAD       FAIR      42  35  76 SE3       29.91R
$$

COZ042>045-048>051-090-091-270700-
...NORTHEAST COLORADO...

CITY           SKY/WX    TMP DP  RH WIND       PRES   REMARKS
GREELEY ARPT   FAIR      48  46  93 CALM      29.90S
AKRON          LGT RAIN  48  46  93 NW15      29.83S
BURLINGTON     FAIR      46  42  86 W10       29.80R
WRAY           MOCLDY    52  52 100 N13G18    29.76R
STERLING       MOCLDY    52  50  93 NW7       29.80F
HOLYOKE        NOT AVBL
FORT MORGAN    CLOUDY    48  46  92 NW13G20   29.85S
$$

COZ086-089-092>099-270700-
...SOUTHEAST COLORADO...

CITY           SKY/WX    TMP DP  RH WIND       PRES   REMARKS
PUEBLO         FAIR      56  39  53 N9        29.87R
LA JUNTA       FAIR      51  40  65 N16G26    29.86R
LAMAR          FAIR      47  39  74 W7        29.80F
SPRINGFIELD      N/A     47  40  76 NW15      29.83R
$$



USA.gov is the U.S. government's official web portal to all federal, state and local government web resources and services.